{"data":{"norad_id":57509,"intl_designator":"2023-113Q","name":"STARLINK-30082","alt_names":[],"object_type":"PAYLOAD","status":"ACTIVE","operator":null,"country":"US","launch_date":"2023-08-07","launch_site_code":"AFETR","launch_vehicle":null,"mission":null,"orbit_class":"UNKNOWN","rcs_meters":null,"size_class":null,"mass_kg":null,"dimensions":null,"purposes":["comms"],"wikipedia_slug":null,"has_3d_model":false,"image_url":null,"decayed_at":null,"tle_current":{"epoch":"2026-05-24T17:09:16.624800Z","epoch_age_seconds":102978,"freshness":"FRESH","line1":"1 57509U 23113Q   26144.71477575 -.00013965  00000+0 -49836-3 0  9994","line2":"2 57509  43.0039 306.6015 0002826 264.8826  95.1703 15.27609751155304","mean_motion":15.27609751,"eccentricity":0.0002826,"inclination_deg":43.0039,"raan_deg":306.6015,"arg_perigee_deg":264.8826,"mean_anomaly_deg":95.1703,"bstar":-0.00049836,"rev_number":15530,"period_min":94.264912819347,"perigee_km":481.02106627293,"apogee_km":484.89895830428,"semimajor_km":6861.0970122886,"source":"CELESTRAK","updated_at":"2026-05-25T13:38:18.329815Z"}}}